Location: Carri�res
(48.9069°N, 2.1792°E)
Time: 13:30:25
(UTC+00:00)

Cosmos 2082 Rocket - Pass Details

Date: 17 January 2021
Orbit: 832 x 855 km, 71.0° (Epoch: 25 February)

Event Time Altitude Azimuth Distance (km) Brightness Sun altitude
Rises 18:31:36 0° 334° (NNW) 3,437 5.6 -20.2°
Reaches altitude 10° 18:35:18 10° 358° (N) 2,498 4.6 -20.8°
Enters shadow 18:37:24 14° 20° (NNE) 2,210 4.1 -21.1°
